Home   Weather   Jamestown   Past weeks
Flag for Saint Helena

Past Weather in Jamestown, Saint Helena — Yesterday and Last 2 Weeks

Now
66 °F

Mild.


Feels Like: 66 °F
Forecast: 74 / 71 °F
Wind: 14 mph from Southeast

Location: Saint Helena Island

Current Time: May 26, 2019 at 5:38:37 am

Latest Report: May 26, 2019 at 4:50 am


Visibility: N/A

Pressure: 30.03 "Hg

Humidity: 74%

Dew Point: 57 °F

Location of JamestownLocation

Past Weather in Jamestown — Graph

°F

Jamestown Temperature Yesterday

Maximum temperature yesterday: 71 °F (at 1:50 pm)
Minimum temperature yesterday: 64 °F (at 10:50 pm)
Average temperature yesterday: 67 °F

High & Low Weather Summary for the Past Weeks

 TemperatureHumidityPressure
High75 °F (May 15, 1:50 pm)97% (May 21, 12:50 pm)30.12 "Hg (May 21, 12:50 pm)
Low62 °F (May 23, 8:50 am)58% (May 24, 6:50 am)29.92 "Hg (May 13, 4:00 pm)
Average68 °F80%30.03 "Hg
* Reported May 11 4:50 am — May 26 4:00 am, Jamestown. Weather by CustomWeather, © 2019

Note: Actual official high and low records may vary slightly from our data, if they occured in-between our weather recording intervals... More about our weather records

Advertising

Jamestown Weather History for the Previous 24 Hours

Scroll right to see more
 ConditionsComfort  
Time TempWeatherWind HumidityBarometerVisibility
4:00 am
Sun, May 26
65 °FMild.8 mph81%30.03 "HgN/A
3:00 am65 °FMild.9 mph83%30.04 "HgN/A
1:50 am63 °FMild.9 mph81%30.06 "HgN/A
10:50 pm
Sat, May 25
64 °FMild.8 mph80%30.08 "HgN/A
8:50 pm66 °FMild.10 mph77%30.06 "HgN/A
5:00 pm67 °FMild.10 mph71%30.03 "HgN/A
4:00 pm69 °FMild.10 mph68%30.03 "HgN/A
3:50 pm69 °FMild.10 mph68%30.03 "HgN/A
2:50 pm70 °FMild.12 mph68%30.02 "HgN/A
1:50 pm71 °FMild.14 mph66%30.03 "HgN/A
12:50 pm70 °FOvercast.10 mph69%30.05 "Hg37 mi
11:50 am71 °FPartly sunny.10 mph68%30.08 "Hg34 mi
11:00 am70 °FOvercast.10 mph67%30.09 "Hg31 mi
9:50 am68 °FMild.9 mph74%30.10 "HgN/A
8:50 am67 °FMild.14 mph77%30.09 "HgN/A
8:00 am65 °FMild.12 mph84%30.08 "HgN/A
6:50 am64 °FMild.10 mph80%30.06 "HgN/A
5:00 am65 °FMild.12 mph75%30.02 "HgN/A
Weather by CustomWeather, © 2019

See weather overview